Bezoek onze andere website:

Meteotemplate

Home Weather Station

Saratoga


Lokaal brand risico:
CBI


Regionaal brand risico: Meer informatie



Select another period ( hide this area )

Eenheden Periode Custom range Directly to
Metrisch Engels Beide
Dagelijkse Wekelijkse Maandelijkse Jaarlijkse
use both date-selectors for a custom range
previous Dag
With this date

WeatherUnderground graphs for this period ( click here )


Dagelijkse Samenvatting Zaterdag 20 oktober 2018
Tijd Temp. ( °C ) Dew pt. ( °C ) Wind ( km/h ) van Windvlaag ( km/h ) Luchtdruk ( hPa ) Humid.( % ) Rainrate ( cm )
Hoog14,6 9,1 5,0 Oosten ( 32/87 ) 6,4 1031,4 95 0,80
Gemiddeld7,1 4,7 0,4 Kalm #171/208 -99,5 1029,3 82 1,60
Laag-17,8 -17,8 -   -1607,4 1026,6 0 -
Dagelijkse Tabular details for Zaterdag 20 oktober 2018
Tijd Temp. ( °C ) Dew pt. ( °C ) Wind ( km/h ) van Windvlaag ( km/h ) Luchtdruk ( hPa ) Humid.( % ) Rainrate ( cm )
00:04 7,8 6,4   Kalm   1026,6 91 -
00:09 7,7 6,3   Kalm   1026,6 91 -
00:14 7,6 6,1   Kalm   1026,6 90 -
00:19 7,4 6,0   Kalm   1026,6 91 -
00:24 7,3 5,9   Kalm   1026,6 91 -
00:29 7,3 5,9   Kalm   1026,6 91 -
00:34 7,2 5,8   Kalm   1026,6 91 -
00:39 7,2 5,8   Kalm   1026,6 91 -
00:44 7,1 5,7   Kalm   1026,6 91 -
00:49 7,1 5,9   Kalm   1026,6 92 -
00:54 7,2 6,0   Kalm   1026,6 92 -
00:59 7,1 5,9   Kalm   1027,0 92 -
01:04 7,0 5,6   Kalm   1026,6 91 -
01:09 6,9 5,7   Kalm   1027,0 92 -
01:14 6,8 5,4   Kalm   1027,0 91 -
01:19 6,7 5,3   Kalm   1027,0 91 -
01:24 6,6 5,4   Kalm   1027,0 92 -
01:29 6,5 5,3   Kalm   1026,6 92 -
01:34 6,5 5,3   Kalm   1027,0 92 -
01:39 6,4 5,2   Kalm   1027,0 92 -
01:44 6,3 5,1   Kalm   1027,0 92 -
01:49 6,3 5,1   Kalm   1027,0 92 -
01:54 6,2 5,0   Kalm   1026,6 92 -
01:59 6,1 4,9   Kalm   1027,0 92 -
02:04 5,9 4,7   Kalm   1027,3 92 -
02:09 5,8 4,4   Kalm   1027,3 91 -
02:14 5,7 4,3   Kalm   1027,0 91 -
02:19 5,7 4,5   Kalm   1027,3 92 -
02:24 5,6 4,4   Kalm   1027,3 92 -
02:29 5,5 4,3   Kalm   1027,3 92 -
02:34 5,3 4,0   Kalm   1027,3 91 -
02:39 5,2 3,9   Kalm   1027,3 91 -
02:44 5,1 3,8   Kalm   1027,3 91 -
02:49 4,9 3,6   Kalm   1027,3 91 -
02:54 4,8 3,6   Kalm   1027,3 92 -
02:59 4,7 3,5   Kalm   1027,3 92 -
03:04 4,7 3,5   Kalm   1027,7 92 -
03:09 4,6 3,4   Kalm   1027,3 92 -
03:14 4,7 3,7   Kalm   1027,3 93 -
03:19 4,6 3,4   Kalm   1027,7 92 -
03:24 4,5 3,3   Kalm   1027,7 92 -
03:29 4,4 3,2   Kalm   1027,7 92 -
03:34 4,3 3,1   Kalm   1027,7 92 -
03:39 4,2 3,0   Kalm   1027,7 92 -
03:44 4,1 2,9   Kalm   1027,7 92 -
03:49 4,0 2,8   Kalm   1028,0 92 -
03:54 3,9 2,7   Kalm   1027,7 92 -
03:59 3,9 2,7   Kalm   1028,0 92 -
04:04 3,9 2,7   Kalm   1027,7 92 -
04:09 3,9 2,9   Kalm   1027,7 93 -
04:14 3,9 2,9   Kalm   1027,7 93 -
04:19 3,9 2,9   Kalm   1027,7 93 -
04:24 3,9 2,9   Kalm   1027,7 93 -
04:29 3,8 2,8   Kalm   1027,7 93 -
04:34 3,8 2,8   Kalm   1027,7 93 -
04:39 3,8 2,8   Kalm   1027,7 93 -
04:44 3,8 2,8   Kalm   1027,7 93 -
04:49 3,8 2,8   Kalm   1027,7 93 -
04:54 3,7 2,7   Kalm   1028,0 93 -
04:59 3,7 2,7   Kalm   1028,0 93 -
05:04 3,6 2,6   Kalm   1028,0 93 -
05:09 3,6 2,6   Kalm   1028,0 93 -
05:14 3,5 2,5   Kalm   1028,0 93 -
05:19 3,5 2,5   Kalm   1028,0 93 -
05:24 3,4 2,4   Kalm   1028,0 93 -
05:29 3,4 2,4   Kalm   1028,0 93 -
05:34 3,4 2,4   Kalm   1028,3 93 -
05:39 3,4 2,4   Kalm   1028,3 93 -
05:44 3,4 2,4   Kalm   1028,3 93 -
05:49 3,3 2,3   Kalm   1028,3 93 -
05:54 3,3 2,3   Kalm   1028,3 93 -
05:59 3,3 2,3   Kalm   1028,3 93 -
06:04 3,3 2,3   Kalm   1028,3 93 -
06:09 3,2 2,2   Kalm   1028,3 93 -
06:14 3,2 2,2   Kalm   1028,3 93 -
06:19 3,2 2,2   Kalm   1028,7 93 -
06:24 3,1 2,1   Kalm   1028,7 93 -
06:29 3,1 2,1   Kalm   1029,0 93 -
06:34 3,2 2,2   Kalm   1028,7 93 -
06:39 3,1 2,1   Kalm   1029,0 93 -
06:44 3,1 2,1   Kalm   1029,0 93 -
06:49 3,1 2,1   Kalm   1029,0 93 -
06:54 3,1 2,1   Kalm   1029,0 93 -
06:59 3,1 2,1   Kalm   1029,0 93 -
07:04 3,0 2,0   Kalm   1029,0 93 -
07:09 2,9 1,9   Kalm   1029,3 93 -
07:14 2,9 1,9   Kalm   1029,3 93 -
07:19 2,9 1,9   Kalm   1029,3 93 -
07:24 2,9 1,9   Kalm   1029,3 93 -
07:29 2,8 1,8   Kalm   1029,3 93 -
07:34 2,8 1,8   Kalm   1029,3 93 -
07:39 2,8 1,8   Kalm   1029,3 93 -
07:44 2,8 1,8   Kalm   1029,3 93 -
07:49 2,8 1,8   Kalm   1029,3 93 -
07:54 2,8 1,8   Kalm   1029,3 93 -
07:59 2,7 1,7   Kalm   1029,3 93 -
08:04 2,7 1,7   Kalm   1029,7 93 -
08:09 2,6 1,6   Kalm   1029,7 93 -
08:14 2,6 1,6   Kalm   1029,7 93 -
08:19 2,6 1,6   Kalm   1029,7 93 -
08:24 2,6 1,6   Kalm   1030,0 93 -
08:29 2,5 1,5   Kalm   1030,0 93 -
08:34 2,5 1,5   Kalm   1030,0 93 -
08:39 2,6 1,7   Kalm   1030,0 94 -
08:44 2,7 1,8   Kalm   1030,0 94 -
08:49 2,8 1,9   Kalm   1030,0 94 -
08:54 2,9 2,0   Kalm   1030,0 94 -
08:59 2,9 2,0   Kalm -1607,4 1030,0 94 -
09:04 2,9 2,0   Kalm -1607,4 1030,4 94 -
09:09 3,2 2,3   Kalm -1607,4 1030,4 94 -
09:14 3,2 2,3   Kalm -1607,4 1030,0 94 -
09:19 -17,8 -17,8   Kalm -1607,4 1030,0 0 -
09:24 4,0 3,1   Kalm -1607,4 1030,0 94 -
09:29 4,0 3,1   Kalm -1607,4 1030,7 94 -
09:34 -17,8 -17,8   Kalm -1607,4 1030,4 0 -
09:39 -17,8 -17,8   Kalm -1607,4 1030,4 0 -
09:43 -17,8 -17,8   Kalm -1607,4 1030,7 0 -
09:48 -17,8 -17,8   Kalm -1607,4 1031,0 0 -
09:54 -17,8 -17,8   Kalm -1607,4 1030,7 0 -
09:59 -17,8 -17,8   Kalm -1607,4 1030,7 0 -
10:04 6,8 6,1   Kalm   1031,0 95 -
10:09 7,1 6,4   Kalm   1031,0 95 -
10:14 7,4 6,7   Kalm   1030,7 95 -
10:19 7,6 6,9   Kalm   1031,0 95 -
10:24 7,8 7,0   Kalm   1031,0 95 -
10:29 8,1 7,3   Kalm   1031,4 95 0,80
10:34 8,3 7,5   Kalm   1031,0 95 0,80
10:39 8,6 7,8   Kalm   1031,4 95 0,80
10:44 8,9 8,1   Kalm   1031,0 95 -
10:49 8,9 8,1   Kalm   1031,0 95 -
10:54 9,1 8,3   Kalm   1031,4 95 -
10:59 9,2 8,4   Kalm   1031,0 95 -
11:04 9,4 8,6   Kalm   1031,4 95 -
11:09 9,6 8,8   Kalm   1031,4 95 -
11:14 9,8 8,4   Kalm   1031,4 91 -
11:19 10,1 8,4   Kalm   1031,4 89 -
11:24 10,5 8,4   Kalm   1031,4 87 -
11:29 10,9 8,3   Kalm   1031,4 84 -
11:34 11,2 8,2   Kalm 4,8 1031,4 82 -
11:39 11,5 8,2   Kalm 4,8 1031,4 80 -
11:44 11,8 8,5   Kalm 3,2 1031,4 80 -
11:49 12,2 8,7 5,0 Oosten 4,8 1031,4 79 -
11:54 12,5 8,8 3,2 Oosten 4,8 1031,4 78 -
11:59 12,6 8,5 3,2 Oosten 3,2 1031,4 76 -
12:04 12,7 8,6   Kalm 3,2 1031,4 76 -
12:09 12,8 8,5 3,2 Oosten 4,8 1031,4 75 -
12:14 12,7 8,4 5,0 ONO 6,4 1031,0 75 -
12:19 12,6 8,3 1,8 Oosten 3,2 1031,0 75 -
12:24 12,6 8,1 1,8 ZO 4,8 1031,0 74 -
12:29 12,7 8,6   Kalm 1,6 1031,0 76 -
12:34 12,8 8,5   Kalm 4,8 1031,0 75 -
12:39 12,9 8,8   Kalm 3,2 1031,0 76 -
12:44 13,2 9,1   Kalm 4,8 1031,0 76 -
12:49 13,3 9,0 1,8 Zuiden 3,2 1031,0 75 -
12:54 13,3 8,6 3,2 Zuiden 3,2 1031,0 73 -
12:59 13,3 8,4 5,0 ZO 4,8 1031,0 72 -
13:04 13,2 8,5 1,8 Oosten 4,8 1031,4 73 -
13:09 13,2 8,7 1,8 Oosten 1,6 1031,4 74 -
13:14 13,2 8,5 1,8 Oosten 4,8 1031,0 73 -
13:19 13,2 8,5 1,8 Oosten 4,8 1031,0 73 -
13:24 13,2 8,7   Kalm   1031,0 74 -
13:29 13,3 8,6 1,8 NNW 1,6 1031,0 73 -
13:34 13,3 8,4 1,8 OZO 3,2 1031,0 72 -
13:39 13,4 8,5   Kalm 1,6 1031,0 72 -
13:44 13,4 8,9 3,2 WZW 4,8 1031,0 74 -
13:49 13,6 8,6 1,8 WZW 3,2 1031,0 72 -
13:54 13,7 8,7 1,8 WZW 1,6 1031,0 72 -
13:59 13,8 8,6   Kalm   1031,0 71 -
14:04 13,9 8,7   Kalm   1031,0 71 -
14:09 14,0 9,0 1,8 ZO 4,8 1030,7 72 -
14:14 14,2 8,8   Kalm 1,6 1031,0 70 -
14:19 14,3 8,9 1,8 Zuiden 1,6 1030,7 70 -
14:24 14,3 8,0 1,8 Zuiden 3,2 1030,7 66 -
14:29 14,4 8,3 3,2 ONO 3,2 1030,7 67 -
14:34 14,5 8,2 1,8 Oosten 4,8 1030,7 66 -
14:39 14,4 7,9   Kalm 3,2 1030,4 65 -
14:44 14,4 8,1 1,8 OZO 3,2 1030,4 66 -
14:49 14,4 7,9 1,8 Oosten 4,8 1030,4 65 -
14:54 14,4 8,1   Kalm   1030,4 66 -
14:59 14,5 8,2   Kalm   1030,4 66 -
15:04 14,4 8,6   Kalm   1030,4 68 -
15:09 14,5 8,4   Kalm   1030,4 67 -
15:14 14,6 8,5 1,8 Noorden 4,8 1030,0 67 -
15:19 14,5 8,7 1,8 OZO 3,2 1030,0 68 -
15:24 14,4 8,6   Kalm 3,2 1030,0 68 -
15:29 14,5 8,4   Kalm   1030,0 67 -
15:34 14,6 8,3   Kalm 3,2 1030,0 66 -
15:39 14,5 8,7 1,8 Noorden 3,2 1030,0 68 -
15:44 14,6 8,5   Kalm 3,2 1030,0 67 -
15:49 14,6 9,0 1,8 OZO 1,6 1030,0 69 -
15:54 14,6 8,3 1,8 ONO 6,4 1030,0 66 -
15:59 14,4 8,3 1,8 NW 4,8 1030,0 67 -
16:04 14,3 8,3 3,2 NO 6,4 1030,0 67 -
16:09 14,2 8,2   Kalm 4,8 1030,0 67 -
16:14 14,2 8,4 1,8 Noorden 3,2 1030,0 68 -
16:19 14,2 8,4   Kalm   1030,0 68 -
16:24 14,1 8,3   Kalm   1030,0 68 -
16:29 13,9 8,3   Kalm   1030,0 69 -
16:34 13,9 7,9 1,8 NW 4,8 1030,0 67 -
16:39 13,8 8,0   Kalm 3,2 1030,0 68 -
16:44 13,8 8,2   Kalm 6,4 1030,0 69 -
16:49 13,8 7,8   Kalm 3,2 1030,0 67 -
16:54 13,8 8,2   Kalm   1030,0 69 -
16:59 13,8 8,0   Kalm   1030,0 68 -
17:04 13,7 8,3 1,8 Oosten 4,8 1030,0 70 -
17:09 13,7 7,9 3,2 Oosten 3,2 1030,0 68 -
17:14 13,7 8,1   Kalm   1030,0 69 -
17:19 13,7 8,1   Kalm   1030,0 69 -
Dagelijkse Samenvatting Zaterdag 20 oktober 2018
Tijd Temp. ( °C ) Dew pt. ( °C ) Wind ( km/h ) van Windvlaag ( km/h ) Luchtdruk ( hPa ) Humid.( % ) Rainrate ( cm )
Hoog14,6 9,1 5,0 Oosten ( 32/87 ) 6,4 1031,4 95 0,80
Gemiddeld7,1 4,7 0,4 Kalm #171/208 -99,5 1029,3 82 1,60
Laag-17,8 -17,8 -   -1607,4 1026,6 0 -
Dagelijkse Tabular details for Zaterdag 20 oktober 2018
Tijd Temp. ( °C ) Dew pt. ( °C ) Wind ( km/h ) van Windvlaag ( km/h ) Luchtdruk ( hPa ) Humid.( % ) Rainrate ( cm )
00:04 7,8 6,4   Kalm   1026,6 91 -
00:09 7,7 6,3   Kalm   1026,6 91 -
00:14 7,6 6,1   Kalm   1026,6 90 -
00:19 7,4 6,0   Kalm   1026,6 91 -
00:24 7,3 5,9   Kalm   1026,6 91 -
00:29 7,3 5,9   Kalm   1026,6 91 -
00:34 7,2 5,8   Kalm   1026,6 91 -
00:39 7,2 5,8   Kalm   1026,6 91 -
00:44 7,1 5,7   Kalm   1026,6 91 -
00:49 7,1 5,9   Kalm   1026,6 92 -
00:54 7,2 6,0   Kalm   1026,6 92 -
00:59 7,1 5,9   Kalm   1027,0 92 -
01:04 7,0 5,6   Kalm   1026,6 91 -
01:09 6,9 5,7   Kalm   1027,0 92 -
01:14 6,8 5,4   Kalm   1027,0 91 -
01:19 6,7 5,3   Kalm   1027,0 91 -
01:24 6,6 5,4   Kalm   1027,0 92 -
01:29 6,5 5,3   Kalm   1026,6 92 -
01:34 6,5 5,3   Kalm   1027,0 92 -
01:39 6,4 5,2   Kalm   1027,0 92 -
01:44 6,3 5,1   Kalm   1027,0 92 -
01:49 6,3 5,1   Kalm   1027,0 92 -
01:54 6,2 5,0   Kalm   1026,6 92 -
01:59 6,1 4,9   Kalm   1027,0 92 -
02:04 5,9 4,7   Kalm   1027,3 92 -
02:09 5,8 4,4   Kalm   1027,3 91 -
02:14 5,7 4,3   Kalm   1027,0 91 -
02:19 5,7 4,5   Kalm   1027,3 92 -
02:24 5,6 4,4   Kalm   1027,3 92 -
02:29 5,5 4,3   Kalm   1027,3 92 -
02:34 5,3 4,0   Kalm   1027,3 91 -
02:39 5,2 3,9   Kalm   1027,3 91 -
02:44 5,1 3,8   Kalm   1027,3 91 -
02:49 4,9 3,6   Kalm   1027,3 91 -
02:54 4,8 3,6   Kalm   1027,3 92 -
02:59 4,7 3,5   Kalm   1027,3 92 -
03:04 4,7 3,5   Kalm   1027,7 92 -
03:09 4,6 3,4   Kalm   1027,3 92 -
03:14 4,7 3,7   Kalm   1027,3 93 -
03:19 4,6 3,4   Kalm   1027,7 92 -
03:24 4,5 3,3   Kalm   1027,7 92 -
03:29 4,4 3,2   Kalm   1027,7 92 -
03:34 4,3 3,1   Kalm   1027,7 92 -
03:39 4,2 3,0   Kalm   1027,7 92 -
03:44 4,1 2,9   Kalm   1027,7 92 -
03:49 4,0 2,8   Kalm   1028,0 92 -
03:54 3,9 2,7   Kalm   1027,7 92 -
03:59 3,9 2,7   Kalm   1028,0 92 -
04:04 3,9 2,7   Kalm   1027,7 92 -
04:09 3,9 2,9   Kalm   1027,7 93 -
04:14 3,9 2,9   Kalm   1027,7 93 -
04:19 3,9 2,9   Kalm   1027,7 93 -
04:24 3,9 2,9   Kalm   1027,7 93 -
04:29 3,8 2,8   Kalm   1027,7 93 -
04:34 3,8 2,8   Kalm   1027,7 93 -
04:39 3,8 2,8   Kalm   1027,7 93 -
04:44 3,8 2,8   Kalm   1027,7 93 -
04:49 3,8 2,8   Kalm   1027,7 93 -
04:54 3,7 2,7   Kalm   1028,0 93 -
04:59 3,7 2,7   Kalm   1028,0 93 -
05:04 3,6 2,6   Kalm   1028,0 93 -
05:09 3,6 2,6   Kalm   1028,0 93 -
05:14 3,5 2,5   Kalm   1028,0 93 -
05:19 3,5 2,5   Kalm   1028,0 93 -
05:24 3,4 2,4   Kalm   1028,0 93 -
05:29 3,4 2,4   Kalm   1028,0 93 -
05:34 3,4 2,4   Kalm   1028,3 93 -
05:39 3,4 2,4   Kalm   1028,3 93 -
05:44 3,4 2,4   Kalm   1028,3 93 -
05:49 3,3 2,3   Kalm   1028,3 93 -
05:54 3,3 2,3   Kalm   1028,3 93 -
05:59 3,3 2,3   Kalm   1028,3 93 -
06:04 3,3 2,3   Kalm   1028,3 93 -
06:09 3,2 2,2   Kalm   1028,3 93 -
06:14 3,2 2,2   Kalm   1028,3 93 -
06:19 3,2 2,2   Kalm   1028,7 93 -
06:24 3,1 2,1   Kalm   1028,7 93 -
06:29 3,1 2,1   Kalm   1029,0 93 -
06:34 3,2 2,2   Kalm   1028,7 93 -
06:39 3,1 2,1   Kalm   1029,0 93 -
06:44 3,1 2,1   Kalm   1029,0 93 -
06:49 3,1 2,1   Kalm   1029,0 93 -
06:54 3,1 2,1   Kalm   1029,0 93 -
06:59 3,1 2,1   Kalm   1029,0 93 -
07:04 3,0 2,0   Kalm   1029,0 93 -
07:09 2,9 1,9   Kalm   1029,3 93 -
07:14 2,9 1,9   Kalm   1029,3 93 -
07:19 2,9 1,9   Kalm   1029,3 93 -
07:24 2,9 1,9   Kalm   1029,3 93 -
07:29 2,8 1,8   Kalm   1029,3 93 -
07:34 2,8 1,8   Kalm   1029,3 93 -
07:39 2,8 1,8   Kalm   1029,3 93 -
07:44 2,8 1,8   Kalm   1029,3 93 -
07:49 2,8 1,8   Kalm   1029,3 93 -
07:54 2,8 1,8   Kalm   1029,3 93 -
07:59 2,7 1,7   Kalm   1029,3 93 -
08:04 2,7 1,7   Kalm   1029,7 93 -
08:09 2,6 1,6   Kalm   1029,7 93 -
08:14 2,6 1,6   Kalm   1029,7 93 -
08:19 2,6 1,6   Kalm   1029,7 93 -
08:24 2,6 1,6   Kalm   1030,0 93 -
08:29 2,5 1,5   Kalm   1030,0 93 -
08:34 2,5 1,5   Kalm   1030,0 93 -
08:39 2,6 1,7   Kalm   1030,0 94 -
08:44 2,7 1,8   Kalm   1030,0 94 -
08:49 2,8 1,9   Kalm   1030,0 94 -
08:54 2,9 2,0   Kalm   1030,0 94 -
08:59 2,9 2,0   Kalm -1607,4 1030,0 94 -
09:04 2,9 2,0   Kalm -1607,4 1030,4 94 -
09:09 3,2 2,3   Kalm -1607,4 1030,4 94 -
09:14 3,2 2,3   Kalm -1607,4 1030,0 94 -
09:19 -17,8 -17,8   Kalm -1607,4 1030,0 0 -
09:24 4,0 3,1   Kalm -1607,4 1030,0 94 -
09:29 4,0 3,1   Kalm -1607,4 1030,7 94 -
09:34 -17,8 -17,8   Kalm -1607,4 1030,4 0 -
09:39 -17,8 -17,8   Kalm -1607,4 1030,4 0 -
09:43 -17,8 -17,8   Kalm -1607,4 1030,7 0 -
09:48 -17,8 -17,8   Kalm -1607,4 1031,0 0 -
09:54 -17,8 -17,8   Kalm -1607,4 1030,7 0 -
09:59 -17,8 -17,8   Kalm -1607,4 1030,7 0 -
10:04 6,8 6,1   Kalm   1031,0 95 -
10:09 7,1 6,4   Kalm   1031,0 95 -
10:14 7,4 6,7   Kalm   1030,7 95 -
10:19 7,6 6,9   Kalm   1031,0 95 -
10:24 7,8 7,0   Kalm   1031,0 95 -
10:29 8,1 7,3   Kalm   1031,4 95 0,80
10:34 8,3 7,5   Kalm   1031,0 95 0,80
10:39 8,6 7,8   Kalm   1031,4 95 0,80
10:44 8,9 8,1   Kalm   1031,0 95 -
10:49 8,9 8,1   Kalm   1031,0 95 -
10:54 9,1 8,3   Kalm   1031,4 95 -
10:59 9,2 8,4   Kalm   1031,0 95 -
11:04 9,4 8,6   Kalm   1031,4 95 -
11:09 9,6 8,8   Kalm   1031,4 95 -
11:14 9,8 8,4   Kalm   1031,4 91 -
11:19 10,1 8,4   Kalm   1031,4 89 -
11:24 10,5 8,4   Kalm   1031,4 87 -
11:29 10,9 8,3   Kalm   1031,4 84 -
11:34 11,2 8,2   Kalm 4,8 1031,4 82 -
11:39 11,5 8,2   Kalm 4,8 1031,4 80 -
11:44 11,8 8,5   Kalm 3,2 1031,4 80 -
11:49 12,2 8,7 5,0 Oosten 4,8 1031,4 79 -
11:54 12,5 8,8 3,2 Oosten 4,8 1031,4 78 -
11:59 12,6 8,5 3,2 Oosten 3,2 1031,4 76 -
12:04 12,7 8,6   Kalm 3,2 1031,4 76 -
12:09 12,8 8,5 3,2 Oosten 4,8 1031,4 75 -
12:14 12,7 8,4 5,0 ONO 6,4 1031,0 75 -
12:19 12,6 8,3 1,8 Oosten 3,2 1031,0 75 -
12:24 12,6 8,1 1,8 ZO 4,8 1031,0 74 -
12:29 12,7 8,6   Kalm 1,6 1031,0 76 -
12:34 12,8 8,5   Kalm 4,8 1031,0 75 -
12:39 12,9 8,8   Kalm 3,2 1031,0 76 -
12:44 13,2 9,1   Kalm 4,8 1031,0 76 -
12:49 13,3 9,0 1,8 Zuiden 3,2 1031,0 75 -
12:54 13,3 8,6 3,2 Zuiden 3,2 1031,0 73 -
12:59 13,3 8,4 5,0 ZO 4,8 1031,0 72 -
13:04 13,2 8,5 1,8 Oosten 4,8 1031,4 73 -
13:09 13,2 8,7 1,8 Oosten 1,6 1031,4 74 -
13:14 13,2 8,5 1,8 Oosten 4,8 1031,0 73 -
13:19 13,2 8,5 1,8 Oosten 4,8 1031,0 73 -
13:24 13,2 8,7   Kalm   1031,0 74 -
13:29 13,3 8,6 1,8 NNW 1,6 1031,0 73 -
13:34 13,3 8,4 1,8 OZO 3,2 1031,0 72 -
13:39 13,4 8,5   Kalm 1,6 1031,0 72 -
13:44 13,4 8,9 3,2 WZW 4,8 1031,0 74 -
13:49 13,6 8,6 1,8 WZW 3,2 1031,0 72 -
13:54 13,7 8,7 1,8 WZW 1,6 1031,0 72 -
13:59 13,8 8,6   Kalm   1031,0 71 -
14:04 13,9 8,7   Kalm   1031,0 71 -
14:09 14,0 9,0 1,8 ZO 4,8 1030,7 72 -
14:14 14,2 8,8   Kalm 1,6 1031,0 70 -
14:19 14,3 8,9 1,8 Zuiden 1,6 1030,7 70 -
14:24 14,3 8,0 1,8 Zuiden 3,2 1030,7 66 -
14:29 14,4 8,3 3,2 ONO 3,2 1030,7 67 -
14:34 14,5 8,2 1,8 Oosten 4,8 1030,7 66 -
14:39 14,4 7,9   Kalm 3,2 1030,4 65 -
14:44 14,4 8,1 1,8 OZO 3,2 1030,4 66 -
14:49 14,4 7,9 1,8 Oosten 4,8 1030,4 65 -
14:54 14,4 8,1   Kalm   1030,4 66 -
14:59 14,5 8,2   Kalm   1030,4 66 -
15:04 14,4 8,6   Kalm   1030,4 68 -
15:09 14,5 8,4   Kalm   1030,4 67 -
15:14 14,6 8,5 1,8 Noorden 4,8 1030,0 67 -
15:19 14,5 8,7 1,8 OZO 3,2 1030,0 68 -
15:24 14,4 8,6   Kalm 3,2 1030,0 68 -
15:29 14,5 8,4   Kalm   1030,0 67 -
15:34 14,6 8,3   Kalm 3,2 1030,0 66 -
15:39 14,5 8,7 1,8 Noorden 3,2 1030,0 68 -
15:44 14,6 8,5   Kalm 3,2 1030,0 67 -
15:49 14,6 9,0 1,8 OZO 1,6 1030,0 69 -
15:54 14,6 8,3 1,8 ONO 6,4 1030,0 66 -
15:59 14,4 8,3 1,8 NW 4,8 1030,0 67 -
16:04 14,3 8,3 3,2 NO 6,4 1030,0 67 -
16:09 14,2 8,2   Kalm 4,8 1030,0 67 -
16:14 14,2 8,4 1,8 Noorden 3,2 1030,0 68 -
16:19 14,2 8,4   Kalm   1030,0 68 -
16:24 14,1 8,3   Kalm   1030,0 68 -
16:29 13,9 8,3   Kalm   1030,0 69 -
16:34 13,9 7,9 1,8 NW 4,8 1030,0 67 -
16:39 13,8 8,0   Kalm 3,2 1030,0 68 -
16:44 13,8 8,2   Kalm 6,4 1030,0 69 -
16:49 13,8 7,8   Kalm 3,2 1030,0 67 -
16:54 13,8 8,2   Kalm   1030,0 69 -
16:59 13,8 8,0   Kalm   1030,0 68 -
17:04 13,7 8,3 1,8 Oosten 4,8 1030,0 70 -
17:09 13,7 7,9 3,2 Oosten 3,2 1030,0 68 -
17:14 13,7 8,1   Kalm   1030,0 69 -
17:19 13,7 8,1   Kalm   1030,0 69 -

Download your copy of this data-set  here

Our weather-data as stored at Weather Underground. Script ontwikkeld door Jim McMurry. Aangepast voor de template door Leuven-Template.eu

U vindt ons ook hier:

Het Weer Aktueel

UK Metoffice

European Weather Network

WeatherCloud

Weather Underground

Benelux Weer Netwerk

AWEKAS

Citizen Weather Observer Program (CWOP)

Apparatuur in gebruik:

Weerstation
Davis VP2

Weerprogramma
Meteobridge

Weercomputer
TP-Link MR3020

Davis VP2

Meteobridge

TP-Link MR3020